This is the latest recevied weather packets stored in our database for station/object W6JCZ-13. If no packets are shown the sender has not sent any weather packets the latest 10 day(s).
| Time | Temp. | Humidity | Pressure | Rain* | Wind** | Luminosity | Snow |
|---|---|---|---|---|---|---|---|
| 1777690818 | 22.78° C | 67% | 1008.2 hPa | 0 mm | - | - | - |
| 1777690217 | 22.78° C | 66% | 1008.1 hPa | 0 mm | - | - | - |
| 1777689617 | 23.33° C | 65% | 1008 hPa | 0 mm | - | - | - |
| 1777689018 | 23.89° C | 63% | 1008 hPa | 0 mm | - | - | - |
| 1777688417 | 24.44° C | 62% | 1008.1 hPa | 0 mm | - | - | - |
| 1777687817 | 25° C | 61% | 1008 hPa | 0 mm | - | - | - |
| 1777687217 | 25.56° C | 60% | 1008 hPa | 0 mm | - | - | - |
| 1777686618 | 25.56° C | 59% | 1008.1 hPa | 0 mm | - | - | - |
| 1777686017 | 25.56° C | 56% | 1008.1 hPa | 0 mm | - | - | - |
| 1777685417 | 26.11° C | 57% | 1008.1 hPa | 0 mm | - | - | - |
| 1777684817 | 26.67° C | 55% | 1008 hPa | 0 mm | - | - | - |
| 1777684218 | 26.67° C | 56% | 1008 hPa | 0 mm | - | - | - |
| 1777683617 | 27.22° C | 53% | 1008.1 hPa | 0 mm | - | - | - |
| 1777683017 | 27.22° C | 51% | 1008.2 hPa | 0 mm | - | - | - |
| 1777682417 | 27.78° C | 53% | 1008.3 hPa | 0 mm | - | - | - |
| 1777681217 | 27.78° C | 52% | 1008.4 hPa | 0 mm | - | - | - |
| 1777680617 | 28.33° C | 49% | 1008.4 hPa | 0 mm | - | - | - |
| 1777680017 | 28.33° C | 53% | 1008.4 hPa | 0 mm | - | - | - |
| 1777679417 | 28.33° C | 51% | 1008.4 hPa | 0 mm | - | - | - |
| 1777678817 | 28.33° C | 51% | 1008.4 hPa | 0 mm | - | - | - |
| 1777678217 | 28.89° C | 51% | 1008.5 hPa | 0 mm | - | - | - |
| 1777677617 | 29.44° C | 46% | 1008.6 hPa | 0 mm | - | - | - |
| 1777677017 | 29.44° C | 47% | 1008.6 hPa | 0 mm | - | - | - |
| 1777676417 | 29.44° C | 47% | 1008.8 hPa | 0 mm | - | - | - |
| 1777675817 | 29.44° C | 45% | 1009 hPa | 0 mm | - | - | - |
* Rain latest hour (hover to see other rain measurements)
** Current wind speed in m/s (hover to see current wind gust speed)